This is the latest recevied weather packets stored in our database for station/object N4CRH-13. If no packets are shown the sender has not sent any weather packets the latest 10 day(s).
| Time | Temp. | Humidity | Pressure | Rain* | Wind** | Luminosity | Snow |
|---|---|---|---|---|---|---|---|
| 1777957280 | 5.56° C | 96% | 1290.8 hPa | 0 mm | - | 0 W/m² | - |
| 1777956975 | 5.56° C | 96% | 1290.8 hPa | 0 mm | - | 0 W/m² | - |
| 1777956673 | 5.56° C | 96% | 1290.9 hPa | 0 mm | - | 0 W/m² | - |
| 1777956369 | 5.56° C | 96% | 1290.6 hPa | 0 mm | - | 0 W/m² | - |
| 1777956066 | 5.56° C | 96% | 1290.7 hPa | 0 mm | - | 0 W/m² | - |
| 1777955762 | 5.56° C | 96% | 1290.7 hPa | 0 mm | - | 0 W/m² | - |
| 1777955459 | 5.56° C | 95% | 1290.6 hPa | 0 mm | - | 0 W/m² | - |
| 1777955155 | 5.56° C | 95% | 1290.7 hPa | 0 mm | - | 0 W/m² | - |
| 1777954853 | 5.56° C | 95% | 1290.7 hPa | 0 mm | - | 0 W/m² | - |
| 1777954549 | 5.56° C | 95% | 1290.7 hPa | 0 mm | - | 0 W/m² | - |
| 1777954247 | 5.56° C | 94% | 1290.4 hPa | 0 mm | - | 0 W/m² | - |
| 1777953944 | 5.56° C | 94% | 1290.8 hPa | 0 mm | - | 0 W/m² | - |
| 1777953641 | 5.56° C | 94% | 1290.7 hPa | 0 mm | - | 0 W/m² | - |
| 1777953337 | 5.56° C | 94% | 1290.2 hPa | 0 mm | - | 0 W/m² | - |
| 1777953034 | 5.56° C | 93% | 1290.3 hPa | 0 mm | - | 0 W/m² | - |
| 1777952730 | 6.11° C | 93% | 1290.1 hPa | 0 mm | - | 0 W/m² | - |
| 1777952427 | 6.11° C | 93% | 1290.2 hPa | 3.05 mm | - | 0 W/m² | - |
| 1777952124 | 6.11° C | 93% | 1290 hPa | 3.05 mm | - | 0 W/m² | - |
| 1777951822 | 6.67° C | 91% | 1290.4 hPa | 3.05 mm | - | 0 W/m² | - |
| 1777951520 | 6.67° C | 89% | 1290.4 hPa | 4.83 mm | - | 0 W/m² | - |
| 1777951216 | 6.67° C | 89% | 1290.7 hPa | 4.83 mm | - | 0 W/m² | - |
| 1777950913 | 6.67° C | 89% | 1290.6 hPa | 1.78 mm | - | 0 W/m² | - |
| 1777950610 | 6.67° C | 90% | 1290.6 hPa | 1.27 mm | - | 0 W/m² | - |
| 1777950307 | 6.67° C | 89% | 1290.1 hPa | 1.78 mm | - | 0 W/m² | - |
| 1777950001 | 7.22° C | 87% | 1290 hPa | 1.78 mm | - | 0 W/m² | - |
* Rain latest hour (hover to see other rain measurements)
** Current wind speed in m/s (hover to see current wind gust speed)